CAPE
0 0 0 0 0 0 0 0 0 0 0 0 0 0 0 0 0 1 0 0 0 2 0 0 0 0 0 0 2 2 2 3 6 0 0 0 0 0 0 0 0 0 0
0 1 0 1 0 0 0 0 0 0 0 0 0 0 0 0 1 4 2 0 0 0 0 2 0 0 0 0 0 0 2 8 29 17 0 1 1 0 0 0 0 0 0
1 2 1 1 0 0 0 0 0 0 0 0 0 0 0 0 0 0 0 0 0 0 0 0 0 1 0 4 11 17 16 19 30 27 21 16 16 1 0 0 0 0 0
0 0 0 1 1 0 0 0 0 0 0 0 0 0 0 0 0 0 0 0 0 0 0 1 1 0 0 0 0 1 1 3 7 12 12 8 7 5 0 0 0 0 0
0 0 0 0 1 1 0 0 0 0 0 0 0 0 0 0 0 0 0 0 0 0 0 0 0 0 0 0 0 0 0 0 0 1 0 0 0 0 0 0 0 0 0
0 0 0 0 0 0 0 1 0 1 0 0 0 0 0 0 0 0 0 0 0 0 0 0 0 0 0 0 0 0 0 0 0 0 0 0 0 0 0 1 0 0 1
0 0 0 0 0 0 0 0 0 1 0 1 1 1 1 0 0 0 0 0 0 0 0 0 0 0 0 0 0 0 0 0 0 0 0 0 1 0 0 0 0 0 0
0 0 0 0 0 0 0 0 0 1 4 6 5 6 3 3 4 2 2 1 1 0 0 0 0 0 0 0 0 0 0 0 0 0 0 0 0 1 0 1 0 0 5
0 0 0 0 0 0 0 1 1 3 4 4 4 6 5 7 9 0 0 1 5 2 1 0 0 0 0 0 0 0 0 0 6 8 2 4 5 3 2 3 1 1 0
0 0 0 2 2 2 2 3 4 4 6 7 5 4 3 6 5 1 0 0 0 2 0 7 10 11 2 1 1 1 1 2 7 5 3 1 2 4 1 2 1 0 0
0 0 1 1 1 2 2 2 3 3 2 3 2 2 1 3 3 6 1 0 2 2 9 9 5 3 0 2 1 1 3 3 3 2 2 2 3 3 3 2 1 1 0
0 0 2 0 0 0 0 2 0 2 0 1 1 2 1 1 1 2 5 6 5 8 7 2 1 2 3 4 6 4 2 0 0 0 0 1 1 1 1 1 1 1 0
1 2 1 1 0 0 2 3 2 1 2 2 3 3 2 2 1 1 1 2 2 3 1 1 1 2 1 2 2 3 1 1 2 0 0 0 0 0 0 0 0 1 0
0 0 0 2 1 0 0 0 2 2 3 3 2 3 2 2 1 0 0 0 0 0 0 0 1 1 1 1 0 0 0 0 0 0 0 0 0 0 0 0 0 0 0
0 0 0 0 0 0 0 0 0 0 0 1 1 1 1 0 1 0 0 0 0 0 0 0 0 0 0 0 0 0 0 0 0 0 0 0 0 0 0 0 0 0 0
0 0 0 0 0 0 0 0 1 2 2 3 0 0 0 0 0 1 2 4 2 0 0 0 0 0 0 0 0 0 0 0 0 0 0 0 0 0 0 0 0 0 0
0 0 0 0 0 0 0 0 0 0 0 1 2 1 0 4 0 0 0 0 0 0 0 0 0 0 0 0 0 0 0 0 0 0 0 0 0 0 0 0 0 0 0
0 0 0 0 0 0 0 0 0 0 0 0 0 0 1 1 0 0 0 0 0 0 0 0 0 0 0 0 0 0 0 0 0 0 0 0 0 0 0 0 0 0 0
0 0 0 0 0 0 0 0 0 0 0 0 0 0 0 0 0 0 0 0 0 0 0 0 0 0 0 0 0 0 0 0 0 0 0 0 0 0 0 0 0 0 0
0 0 0 0 0 0 0 0 0 0 0 0 0 0 0 0 0 0 0 0 0 0 0 0 0 0 0 0 0 0 0 0 0 0 0 0 0 0 0 0 0 0 0
0 0 0 0 0 0 0 0 0 0 0 0 0 0 0 0 0 0 0 0 0 0 0 0 0 0 0 0 0 0 0 0 0 0 0 0 0 0 0 0 0 0 0
0 0 0 0 0 0 0 0 0 0 0 0 0 0 0 0 0 0 0 0 0 0 0 0 0 0 0 0 0 0 0 0 0 0 0 0 0 0 0 0 0 0 0
0 0 0 0 0 0 0 0 0 0 0 0 0 0 0 0 0 0 0 0 0 0 0 0 0 0 0 0 0 0 0 0 0 0 0 0 0 0 0 0 0 0 0
0 0 0 0 0 0 0 0 0 0 0 0 0 0 0 0 0 0 0 0 0 0 0 0 0 0 0 0 0 0 0 0 0 0 0 0 0 0 0 0 0 0 0
0 0 0 0 0 0 0 0 0 0 0 0 0 0 0 0 0 0 0 0 0 0 0 0 0 0 0 0 0 0 0 0 0 0 0 0 0 0 0 0 0 0 0
0 0 0 0 0 0 0 0 0 0 0 0 0 0 0 0 0 0 0 0 0 0 0 0 0 0 0 0 0 0 0 0 0 0 0 0 0 0 0 0 0 0 0
CIN
0 0 0 0 0 0 0 0 -3 -5 -5 0 0 0 0 0 0 0 0 0 -14 -67 0 0 0 0 0 -5 -88 -45 -86 -89 -50 0 0 0 0 0 0 0 0 0 0
0 0 0 0 0 0 0 0 0 0 0 0 0 0 0 0 -103 -58 -60 0 0 0 0 -76 -3 0 0 0 0 0 -102 -105 -74 -49 0 -90 -164 -10 0 0 0 0 0
0 0 0 0 0 0 0 0 0 0 0 0 0 0 0 0 0 0 0 0 -13 -21 0 0 0 -66 0 -80 -72 -72 -95 -106 -95 -79 -66 -90 -100 -193 0 0 0 0 0
0 0 0 0 0 0 0 0 0 0 0 0 0 0 0 0 0 0 0 0 0 0 0 -91 -33 -38 0 -41 -46 -52 -44 -70 -59 -48 -49 -77 -97 -102 0 0 0 0 0
0 0 0 0 0 0 0 0 0 0 0 0 0 0 0 0 0 0 0 0 0 0 0 0 0 0 0 -19 -17 0 0 0 0 -7 -1 0 0 0 0 0 0 0 0
0 0 0 0 0 0 0 0 0 0 0 0 0 0 0 0 0 0 0 0 0 0 0 0 0 0 0 0 0 0 0 0 0 0 0 0 0 0 -1 -1 0 0 0
0 0 0 0 0 0 0 0 0 0 0 0 0 0 0 0 0 0 0 0 0 0 0 0 0 0 0 0 0 0 0 0 0 0 -2 -1 -1 0 0 -1 0 0 0
0 0 0 0 0 0 0 0 0 0 0 0 0 0 0 0 0 0 0 0 0 0 0 0 0 0 0 0 0 0 0 0 0 0 0 0 0 0 0 0 0 0 0
0 0 0 0 0 0 0 0 0 0 0 0 0 0 0 0 0 0 0 0 0 0 0 0 0 0 0 0 0 0 0 0 0 0 0 0 0 0 0 0 0 0 0
0 0 0 0 0 0 0 0 0 0 0 0 0 0 0 0 0 0 0 0 0 0 0 0 0 0 0 0 0 0 0 0 0 0 0 0 0 0 0 0 0 0 0
0 0 0 0 0 0 0 0 0 0 0 0 0 0 0 0 0 0 0 0 0 0 0 0 0 0 0 0 0 0 0 0 0 0 0 0 0 0 0 0 0 0 0
0 0 0 0 0 0 0 0 0 0 0 0 0 0 0 0 0 0 0 0 0 0 0 0 0 0 0 0 0 0 0 0 0 0 0 0 0 0 0 0 0 0 0
0 0 0 0 0 0 0 0 0 0 0 0 0 0 0 0 0 0 0 0 0 0 0 0 0 0 0 0 0 0 0 0 0 0 0 0 0 0 0 0 0 0 0
0 0 0 0 0 0 0 0 0 0 0 0 0 0 0 0 0 0 0 0 0 0 0 0 0 0 0 0 0 0 0 0 0 0 0 0 0 0 0 0 0 0 0
0 0 0 0 0 0 0 0 0 0 -1 0 0 0 0 0 0 0 0 0 0 0 0 0 0 0 0 0 0 0 0 0 0 0 0 0 0 0 0 0 0 0 0
0 0 0 0 0 0 0 0 0 0 0 0 0 0 0 0 0 0 0 0 0 0 0 0 0 0 0 0 0 0 0 0 0 0 0 0 0 0 0 0 0 0 0
0 0 0 0 0 0 0 0 0 0 0 -1 0 0 -1 0 -1 0 0 0 0 0 0 0 0 0 0 0 0 0 0 0 0 0 0 0 0 0 0 0 0 0 0
0 0 0 0 0 0 0 0 0 0 0 0 0 0 0 0 0 0 0 0 0 0 0 0 0 0 0 0 0 0 0 0 0 0 0 0 0 0 0 0 0 0 0
0 0 0 0 0 0 0 0 0 0 0 0 0 0 0 0 0 0 0 0 0 0 0 0 0 0 0 0 0 0 0 0 0 0 0 0 0 0 0 0 0 0 0
0 0 0 0 0 0 0 0 0 0 0 0 0 0 0 0 0 0 0 0 0 0 0 0 0 0 0 0 0 0 0 0 0 0 0 0 0 0 0 0 0 0 0
0 0 0 0 0 0 0 0 0 0 0 0 0 0 0 0 0 0 0 0 0 0 0 0 0 0 0 0 0 0 0 0 0 0 0 0 0 0 0 0 0 0 0
0 0 0 0 0 0 0 0 0 0 0 0 0 0 0 0 0 0 0 0 0 0 0 0 0 0 0 0 0 0 0 0 0 0 0 0 0 0 0 0 0 0 0
0 0 0 0 0 0 0 0 0 0 0 0 0 0 0 0 0 0 0 0 0 0 0 0 0 0 0 0 0 0 0 0 0 0 0 0 0 0 0 0 0 0 0
0 0 0 0 0 0 0 0 0 0 0 0 0 0 0 0 0 0 0 0 0 0 0 0 0 0 0 0 0 0 0 0 0 0 0 0 0 0 0 0 0 0 0
0 0 0 0 0 0 0 0 0 0 0 0 0 0 0 0 0 0 0 0 0 0 0 0 0 0 0 0 0 0 0 0 0 0 0 0 0 0 0 0 0 0 0
0 0 0 0 0 0 0 0 0 0 0 0 0 0 0 0 0 0 0 0 0 0 0 0 0 0 0 0 0 0 0 0 0 0 0 0 0 0 0 0 0 0 0
Wind_Speed
4 5 5 5 5 4 5 6 7 6 4 2 6 8 8 8 8 9 13 18 16 17 17 18 22 20 23 25 25 26 25 24 25 32 33 33 30 27 30 31 31 30 29
5 5 4 5 5 3 3 5 5 6 1 1 2 3 5 7 8 10 11 12 14 15 16 17 20 21 21 22 27 25 26 27 30 31 44 39 35 33 32 32 31 31 31
10 9 9 9 8 6 6 3 1 3 7 6 4 6 7 8 9 11 13 15 16 18 19 20 21 22 23 25 27 29 31 34 35 38 39 39 39 37 37 36 34 36 35
14 9 8 8 7 11 11 10 7 4 4 5 8 9 10 11 12 13 14 15 17 18 19 21 22 24 26 28 31 32 34 35 35 36 36 36 38 39 39 40 43 41 40
12 13 16 19 15 8 9 11 12 11 12 12 11 11 13 14 15 16 17 18 20 22 23 24 25 26 27 29 30 31 33 35 37 38 39 38 38 38 38 40 41 41 40
14 15 17 17 18 18 19 21 20 16 16 16 15 16 16 18 21 19 20 24 26 27 27 28 29 30 31 33 33 35 34 34 36 37 38 40 40 40 41 40 40 40 43
16 17 19 20 20 21 21 22 23 25 26 26 27 28 27 26 25 23 23 25 27 27 28 30 33 35 35 35 36 37 38 39 40 41 44 43 45 43 42 41 41 42 43
18 20 21 22 22 24 24 24 25 25 26 28 29 31 32 31 37 38 40 37 34 33 33 34 35 36 36 37 39 39 40 41 42 43 45 48 51 48 43 42 43 42 39
21 23 23 23 23 24 25 26 26 26 26 27 27 29 31 33 39 40 41 40 39 38 39 41 41 44 44 42 41 43 42 41 38 39 36 37 41 44 45 46 47 44 45
23 24 24 24 25 25 26 26 26 25 25 25 26 28 30 32 38 39 39 39 42 43 40 37 42 46 48 47 47 46 48 41 38 37 34 35 37 37 37 38 40 43 42
23 23 24 24 25 25 25 26 26 25 24 25 26 28 30 33 35 37 37 35 34 32 33 35 37 39 40 38 40 42 39 30 31 30 30 30 33 35 35 31 32 32 35
22 24 24 25 25 25 24 25 26 25 25 26 27 29 30 32 34 35 34 31 27 27 29 30 31 33 33 31 29 28 26 25 26 27 29 29 29 30 31 29 26 25 24
22 23 24 24 25 26 26 25 25 26 26 26 27 29 30 31 32 33 32 30 28 26 25 26 28 30 30 30 27 26 24 24 26 26 27 28 26 25 24 25 22 22 23
22 22 23 24 25 26 26 26 26 27 27 27 28 29 30 31 32 31 30 30 29 27 25 25 25 26 26 26 26 25 24 23 21 23 25 24 24 25 26 26 27 26 27
21 22 22 23 23 24 26 26 26 28 27 26 27 28 29 30 31 30 30 29 28 26 24 24 25 25 26 26 25 24 24 24 24 24 25 24 24 25 25 25 25 25 26
21 21 22 22 22 22 22 23 27 27 28 29 28 27 27 28 28 28 28 28 28 28 28 28 26 25 24 24 24 24 25 25 25 24 24 25 25 26 25 25 24 25 26
20 21 21 22 22 23 23 23 24 25 27 29 29 29 29 28 27 27 27 28 28 27 27 28 28 27 26 25 24 24 24 25 25 24 24 25 24 24 25 26 26 25 26
21 21 21 22 22 23 23 24 24 25 26 27 28 29 28 28 27 26 26 25 27 28 27 26 26 27 27 26 25 24 24 24 24 24 24 25 25 25 25 25 26 27 26
21 21 21 22 22 22 23 24 24 25 26 26 26 27 28 27 27 28 27 27 27 27 27 26 26 25 25 25 24 24 24 25 25 25 25 26 26 25 25 26 26 27 27
21 21 22 22 22 23 23 24 24 25 26 26 27 28 28 26 28 28 28 27 26 26 26 25 25 25 25 24 24 24 24 25 25 25 26 26 26 25 26 26 27 27 28
21 22 22 22 22 23 23 24 24 24 25 26 27 27 27 26 26 26 26 27 26 26 25 25 25 25 25 25 24 25 25 25 26 26 26 26 26 26 26 26 27 27 27
21 21 22 22 22 23 23 24 24 24 25 25 25 26 26 26 26 26 26 26 25 25 25 25 25 25 25 25 25 25 26 27 27 27 27 26 26 27 26 26 26 27 28
22 22 22 23 23 23 23 23 23 24 24 25 25 25 26 26 26 25 25 25 25 26 26 25 25 24 24 25 25 26 26 27 27 27 28 28 27 27 27 28 28 29 29
23 23 23 23 23 23 24 24 24 24 24 24 25 25 25 25 25 25 25 25 26 26 26 25 24 24 25 26 26 26 26 27 28 28 27 27 27 27 27 28 28 29 29
23 23 24 24 24 24 24 24 24 24 24 24 24 25 25 25 26 26 26 26 26 26 26 25 24 25 26 27 26 26 28 29 29 28 27 27 27 27 27 27 28 28 28
24 24 24 24 24 24 25 25 25 25 26 25 25 25 26 26 27 27 26 26 26 25 26 26 27 27 27 27 26 27 29 30 30 28 27 27 27 27 27 27 27 27 27
Wind_Direction
81 90 89 86 47 45 89 104 98 91 95 134 153 168 180 191 212 238 242 261 251 254 248 246 225 235 260 267 267 271 270 272 274 280 287 288 286 284 288 288 289 288 288
339 344 19 6 360 36 98 116 115 128 74 308 263 237 243 241 229 214 222 249 247 243 245 244 234 259 247 255 268 266 267 271 278 279 284 287 287 287 286 287 286 287 287
307 312 316 319 327 333 340 356 43 147 168 179 218 262 264 258 244 238 240 243 244 244 247 244 249 254 248 265 270 272 276 279 280 282 285 288 289 291 290 290 288 292 292
297 315 321 320 319 311 312 315 320 318 286 241 230 230 237 247 250 257 257 252 251 254 255 249 254 254 255 266 271 272 277 279 281 282 283 284 287 290 290 291 292 293 292
320 319 313 308 310 324 317 310 306 302 298 295 289 281 279 270 264 258 258 259 261 265 267 264 262 259 257 260 269 271 275 277 278 280 281 284 285 287 285 290 290 292 291
323 323 324 323 320 317 314 313 308 305 300 295 289 286 283 284 285 274 271 276 275 273 270 270 270 268 260 255 256 255 262 272 276 277 278 280 281 284 288 287 287 290 292
322 322 322 323 324 320 319 318 315 311 308 306 302 297 294 292 289 281 275 275 277 275 274 276 278 278 275 275 274 268 267 265 264 273 279 280 284 283 285 285 285 286 288
323 323 323 324 325 321 322 320 319 317 314 310 307 304 302 304 303 299 293 285 281 279 279 279 281 282 280 279 281 280 279 278 276 276 275 283 287 288 288 288 289 289 293
328 327 324 326 329 328 326 323 322 319 318 316 317 314 312 309 308 303 299 297 291 286 285 286 284 282 283 281 280 281 284 286 292 290 289 291 296 294 287 283 284 286 288
334 333 328 329 330 329 327 325 324 325 326 325 325 322 321 318 318 315 309 301 296 295 296 297 296 292 288 288 287 284 283 284 286 292 293 294 299 302 303 298 293 285 288
332 329 330 334 335 334 333 331 333 334 333 332 331 327 324 325 324 324 321 314 309 306 304 303 305 304 300 295 297 292 289 290 294 294 298 303 306 309 311 311 313 302 296
333 338 339 340 341 342 341 341 340 339 338 336 334 331 329 329 330 332 333 333 329 322 316 314 315 319 319 314 310 306 306 302 297 301 299 308 308 315 320 327 328 329 325
346 347 348 349 350 349 348 344 343 344 343 342 341 340 338 338 337 338 341 341 340 336 331 329 328 326 325 325 325 319 319 311 307 307 309 314 325 324 327 332 334 333 339
347 349 350 354 354 354 354 353 350 347 343 342 342 341 342 345 344 344 345 345 345 343 341 340 339 337 338 336 334 335 333 328 321 319 319 323 322 327 325 325 325 325 328
344 346 347 352 355 359 359 357 358 360 357 350 349 349 346 347 352 358 356 354 356 358 358 353 346 342 337 336 336 338 338 336 330 326 326 326 325 328 328 328 330 331 327
348 347 349 351 351 352 351 353 3 3 3 4 3 0 0 3 3 4 5 5 4 0 356 352 352 351 346 341 337 334 336 333 330 332 332 326 328 328 327 332 335 333 332
354 352 351 351 349 348 347 347 346 350 359 2 2 2 2 0 1 3 5 7 6 2 358 355 353 352 351 347 340 336 335 333 332 332 331 332 332 333 332 333 334 335 332
354 353 352 350 350 349 348 348 348 347 347 349 355 357 1 359 359 357 357 359 357 359 358 356 354 350 350 350 350 348 345 342 339 337 337 336 334 334 332 334 333 333 332
349 349 349 349 349 350 350 350 350 350 350 349 348 349 350 352 354 355 355 353 352 351 352 351 352 352 348 353 352 350 350 347 344 340 338 337 337 336 335 335 334 334 333
346 347 347 348 348 348 349 349 349 349 349 347 346 345 346 346 347 350 353 353 352 351 352 351 350 349 349 349 350 350 349 348 345 343 341 340 338 337 336 335 335 334 334
344 344 345 346 346 347 347 347 347 346 346 346 345 346 348 348 348 350 351 351 350 351 351 351 349 348 348 347 345 346 346 345 344 343 341 340 339 337 337 337 337 337 336
343 344 345 345 345 345 345 344 345 345 345 346 347 348 348 348 347 349 350 350 351 351 351 350 349 348 347 346 345 343 342 340 339 339 338 337 337 337 336 336 337 336 334
344 344 343 342 342 341 342 343 344 345 344 344 346 345 345 345 345 346 346 346 347 346 346 346 346 346 347 346 345 343 341 339 339 338 336 335 334 334 334 332 332 332 333
341 341 340 339 339 338 338 339 340 342 342 342 343 343 343 343 343 343 343 342 342 341 342 343 344 344 343 342 342 341 341 340 338 336 335 334 333 334 332 331 331 332 333
340 340 338 336 336 336 336 337 338 339 339 339 338 338 339 339 339 338 338 338 338 339 340 342 342 340 340 339 340 340 339 338 337 337 336 335 332 331 331 331 332 332 334
338 338 337 336 336 335 336 336 335 335 334 334 334 335 335 336 336 336 337 338 338 339 339 339 338 337 337 338 339 339 338 338 337 338 338 337 332 332 332 332 332 332 333